Date String (YYYY-MM-DD hh:mm:ss) UTC,Instrument flags,Ambient pressure (hPa),Sample flow (lpm),Bypass flow (lpm),Sample temperature (°C),Ambient temperature (°C),ASC tube jacket temperature (°C),LED temperature (°C),Box temperature (°C),Sample RH (%),Span deviation,Mass concentration (μg/m³),Mass concentration (μg/m³),Mass concentration (μg/m³)
DateTimeUTC,F1_M11,P_M11,Q1_M11,Q2_M11,T1_M11,T2_M11,T3_M11,T4_M11,T5_M11,U1_M11,ZSPAN_M11,X0_M11,X2_M11,X1_M11
2022-01-30 07:00:00,,0828.1,4.99,0.00,23.8,23.0,00.0,32.8,25.5,05.5,0000.0,0006.03,0003.66,0003.55
2022-01-30 07:01:00,,0828.0,5.00,0.00,23.7,23.0,00.0,32.7,25.5,05.6,0000.0,0006.00,0003.66,0003.55
2022-01-30 07:02:00,,0828.2,5.00,0.00,23.7,22.9,00.0,32.7,25.5,05.7,0000.0,0006.22,0003.68,0003.54
2022-01-30 07:03:00,,0828.0,5.01,0.00,23.7,22.9,00.0,32.7,25.5,05.7,0000.0,0006.59,0003.73,0003.56
2022-01-30 07:04:00,,0828.0,5.00,0.00,23.7,22.9,00.0,32.7,25.5,05.9,0000.0,0006.96,0003.84,0003.59
2022-01-30 07:05:00,,0828.0,5.00,0.00,23.7,22.9,00.0,32.7,25.5,06.1,0000.0,0006.80,0003.96,0003.64
2022-01-30 07:06:00,,0827.9,5.00,0.00,23.7,22.9,00.0,32.7,25.5,06.1,0000.0,0007.04,0004.10,0003.71
2022-01-30 07:07:00,,0828.0,5.00,0.00,23.7,22.9,00.0,32.7,25.5,06.2,0000.0,0008.06,0004.26,0003.78
2022-01-30 07:08:00,,0827.9,5.00,0.00,23.7,22.9,00.0,32.7,25.5,06.2,0000.0,0008.40,0004.42,0003.88
2022-01-30 07:09:00,,0828.0,5.00,0.00,23.7,22.9,00.0,32.7,25.4,06.3,0000.0,0008.69,0004.57,0003.99
2022-01-30 07:10:00,,0827.9,5.00,0.00,23.7,22.9,00.0,32.7,25.4,06.2,0000.0,0009.27,0004.71,0004.10
2022-01-30 07:11:00,,0828.0,5.00,0.00,23.7,22.8,00.0,32.7,25.4,06.1,0000.0,0009.48,0004.80,0004.19
2022-01-30 07:12:00,,0828.0,4.98,0.00,23.7,22.9,00.0,32.7,25.4,06.1,0000.0,0009.57,0004.87,0004.25
2022-01-30 07:13:00,,0828.0,4.99,0.00,23.6,22.8,00.0,32.6,25.4,06.2,0000.0,0009.60,0004.92,0004.32
2022-01-30 07:14:00,,0828.0,5.00,0.00,23.6,22.8,00.0,32.6,25.4,06.2,0000.0,0009.60,0004.97,0004.39
2022-01-30 07:15:00,,0828.0,5.00,0.00,23.6,22.8,00.0,32.6,25.4,06.4,0000.0,0009.62,0005.01,0004.47
2022-01-30 07:16:00,,0828.0,5.00,0.00,23.6,22.8,00.0,32.6,25.4,06.5,0000.0,0009.60,0005.05,0004.56
2022-01-30 07:17:00,,0828.0,5.00,0.00,23.6,22.8,00.0,32.6,25.4,06.8,0000.0,0009.73,0005.18,0004.69
2022-01-30 07:18:00,,0828.0,5.00,0.00,23.6,22.8,00.0,32.6,25.3,06.9,0000.0,0009.17,0005.28,0004.85
2022-01-30 07:19:00,,0828.0,4.99,0.00,23.6,22.8,00.0,32.6,25.3,06.7,0000.0,0009.09,0005.34,0004.95
2022-01-30 07:20:00,,0827.9,4.99,0.00,23.6,22.7,00.0,32.6,25.3,06.5,0000.0,0009.01,0005.35,0004.99
2022-01-30 07:21:00,,0828.0,5.00,0.00,23.5,22.7,00.0,32.5,25.2,06.4,0000.0,0008.69,0005.37,0005.02
2022-01-30 07:22:00,,0827.9,5.01,0.00,23.5,22.7,00.0,32.5,25.2,06.4,0000.0,0008.46,0005.43,0005.07
2022-01-30 07:23:00,,0827.9,5.00,0.00,23.5,22.7,00.0,32.5,25.2,06.4,0000.0,0008.52,0005.47,0005.10
2022-01-30 07:24:00,,0828.0,5.00,0.00,23.5,22.7,00.0,32.5,25.2,06.1,0000.0,0008.49,0005.48,0005.11
2022-01-30 07:25:00,,0828.0,5.00,0.00,23.5,22.7,00.0,32.5,25.2,05.9,0000.0,0008.51,0005.48,0005.09
2022-01-30 07:26:00,,0828.0,4.98,0.00,23.5,22.7,00.0,32.5,25.2,05.9,0000.0,0008.57,0005.48,0005.06
2022-01-30 07:27:00,,0827.9,5.01,0.00,23.5,22.7,00.0,32.5,25.2,05.8,0000.0,0008.70,0005.45,0005.01
2022-01-30 07:28:00,,0827.9,5.01,0.00,23.4,22.7,00.0,32.5,25.2,05.9,0000.0,0009.09,0005.33,0004.90
2022-01-30 07:29:00,,0828.0,5.00,0.00,23.4,22.7,00.0,32.5,25.1,05.9,0000.0,0009.06,0005.19,0004.74
2022-01-30 07:30:00,,0828.0,5.01,0.00,23.4,22.6,00.0,32.4,25.1,05.9,0000.0,0009.49,0005.12,0004.65
2022-01-30 07:31:00,,0827.9,4.98,0.00,23.4,22.6,00.0,32.4,25.1,05.9,0000.0,0009.72,0005.09,0004.60
2022-01-30 07:32:00,,0827.9,5.00,0.00,23.4,22.6,00.0,32.4,25.1,05.8,0000.0,0009.64,0005.03,0004.53
2022-01-30 07:33:00,,0827.9,5.01,0.00,23.4,22.6,00.0,32.4,25.1,05.7,0000.0,0010.06,0004.95,0004.45
2022-01-30 07:34:00,,0827.9,5.01,0.00,23.4,22.6,00.0,32.4,25.1,05.6,0000.0,0010.10,0004.89,0004.36
2022-01-30 07:35:00,,0827.9,4.98,0.00,23.4,22.6,00.0,32.4,25.1,05.4,0000.0,0010.15,0004.85,0004.28
2022-01-30 07:36:00,,0827.9,5.00,0.00,23.4,22.6,00.0,32.4,25.1,05.4,0000.0,0010.05,0004.78,0004.18
2022-01-30 07:37:00,,0827.9,5.01,0.00,23.3,22.6,00.0,32.4,25.1,05.3,0000.0,0009.84,0004.66,0004.07
2022-01-30 07:38:00,,0827.9,5.01,0.00,23.3,22.5,00.0,32.4,25.0,05.4,0000.0,0009.91,0004.54,0003.97
2022-01-30 07:39:00,,0828.0,5.00,0.00,23.3,22.5,00.0,32.4,25.0,05.4,0000.0,0009.45,0004.41,0003.87
2022-01-30 07:40:00,,0827.8,4.99,0.00,23.3,22.5,00.0,32.3,25.0,05.4,0000.0,0009.55,0004.33,0003.78
2022-01-30 07:41:00,,0827.8,5.00,0.00,23.3,22.5,00.0,32.3,25.0,05.4,0000.0,0009.32,0004.21,0003.68
2022-01-30 07:42:00,,0827.8,5.00,0.00,23.3,22.5,00.0,32.3,25.0,05.4,0000.0,0009.26,0004.12,0003.58
2022-01-30 07:43:00,,0827.9,5.01,0.00,23.3,22.5,00.0,32.3,25.0,05.4,0000.0,0009.82,0004.04,0003.49
2022-01-30 07:44:00,,0827.9,5.00,0.00,23.3,22.5,00.0,32.3,25.0,05.3,0000.0,0009.22,0003.97,0003.43
2022-01-30 07:45:00,,0827.8,4.99,0.00,23.2,22.5,00.0,32.3,25.0,05.2,0000.0,0009.31,0003.91,0003.38
2022-01-30 07:46:00,,0827.8,5.00,0.00,23.2,22.5,00.0,32.3,25.0,05.2,0000.0,0009.37,0003.82,0003.35
2022-01-30 07:47:00,,0827.8,5.01,0.00,23.2,22.5,00.0,32.3,25.0,05.2,0000.0,0009.27,0003.77,0003.34
2022-01-30 07:48:00,,0827.8,4.99,0.00,23.2,22.4,00.0,32.3,25.0,05.2,0000.0,0009.20,0003.74,0003.34
2022-01-30 07:49:00,,0827.8,5.00,0.00,23.2,22.4,00.0,32.3,24.9,05.2,0000.0,0008.65,0003.73,0003.33
2022-01-30 07:50:00,,0827.9,5.00,0.00,23.2,22.4,00.0,32.2,24.9,05.3,0000.0,0008.43,0003.71,0003.32
2022-01-30 07:51:00,,0828.0,5.01,0.00,23.2,22.4,00.0,32.2,24.9,05.3,0000.0,0008.06,0003.68,0003.31
2022-01-30 07:52:00,,0828.0,5.00,0.00,23.2,22.4,00.0,32.2,24.9,05.3,0000.0,0007.79,0003.69,0003.31
2022-01-30 07:53:00,,0828.0,4.99,0.00,23.2,22.4,00.0,32.2,24.9,05.5,0000.0,0007.59,0003.74,0003.33
2022-01-30 07:54:00,,0827.9,5.01,0.00,23.2,22.4,00.0,32.2,24.9,05.5,0000.0,0007.32,0003.80,0003.35
2022-01-30 07:55:00,,0828.0,5.00,0.00,23.1,22.4,00.0,32.2,24.9,05.5,0000.0,0007.80,0003.80,0003.36
2022-01-30 07:56:00,,0827.9,4.98,0.00,23.1,22.4,00.0,32.2,24.9,05.5,0000.0,0007.73,0003.83,0003.38
2022-01-30 07:57:00,,0827.9,5.01,0.00,23.1,22.3,00.0,32.2,24.9,05.6,0000.0,0007.73,0003.91,0003.41
2022-01-30 07:58:00,,0828.0,5.01,0.00,23.1,22.3,00.0,32.2,24.9,06.2,0000.0,0007.93,0004.00,0003.46
2022-01-30 07:59:00,,0827.9,5.00,0.00,23.1,22.3,00.0,32.1,24.9,06.0,0000.0,0008.12,0004.08,0003.52
